Location: Sihaung
(22.8641°N, 94.0549°E)
Time: 17:11:55
(UTC+00:00)

Cosmos 1271 Rocket - Pass Details

Date: 03 March 2021
Orbit: 498 x 544 km, 81.2° (Epoch: 13 April)

Event Time Altitude Azimuth Distance (km) Brightness Sun altitude
Rises 12:14:48 0° 357° (N) 2,588 6.3 -7.0°
Reaches altitude 10° 12:16:55 10° 359° (N) 1,706 5.3 -7.4°
Maximum altitude 12:20:38 68° 83° (E) 544 2.6 -8.3°
Drops below altitude 10° 12:24:23 10° 167° (SSE) 1,719 5.3 -9.2°
Sets 12:26:32 0° 170° (S) 2,609 6.2 -9.7°
